Jacksonville Craig, FL

1:48 AM EDT on July 28, 2017 (GMT -0400)
Craig Municipal

Weather History for KCRG - September, 2013

Change the Weather History Date:

Monday, September 2, 2013

  Actual Average Record
Temperature  
Mean Temperature 82 °F -  
Max Temperature 91 °F 85 °F 93 °F (2016)
Min Temperature 73 °F 70 °F 61 °F (1999)
Cooling Degree Days 17    
Growing Degree Days 32 (Base 50)    
Moisture  
Dew Point 73 °F    
Average Humidity 79    
Maximum Humidity 91    
Minimum Humidity 52    
Precipitation  
Precipitation 0.31 in - - ()
Sea Level Pressure  
Sea Level Pressure 29.95 in    
Wind  
Wind Speed 5 mph (SW)    
Max Wind Speed 22 mph    
Max Gust Speed 29 mph    
Visibility 9 miles    
Events Rain , Thunderstorm    
Averages and records for this station are not official NWS values.
T = Trace of Precipitation, MM = Missing Value Source: NWS Daily Summary

Daily Weather History Graph

Daily Weather History Graph

Search for Another Location

Airport or City:

Trip Planner

Search our weather history database for the weather conditions in past years. The results will help you decide how hot, cold, wet, or windy it might be!

Date:

Astronomy

Sep. 02, 2013 Rise Set
Actual Time 7:03 AM EDT 7:47 PM EDT
Civil Twilight 6:39 AM EDT 8:11 PM EDT
Nautical Twilight 6:10 AM EDT 8:40 PM EDT
Astronomical Twilight 5:40 AM EDT 9:09 PM EDT
Moon 4:26 AM EDT (9/2) 5:54 PM EDT (9/2)
Length of Visible Light 13h 32m
Length of Day
12h 43m
Waning Crescent, 8% of the Moon is Illuminated
Sep 2
Waning Crescent
Sep 5
New
Sep 12
First Quarter
Sep 19
Full
Sep 26
Last Quarter

Hourly Weather History & Observations

Time (EDT) Temp. Heat Index Dew Point Humidity Pressure Visibility Wind Dir Wind Speed Gust Speed Precip Events Conditions
12:53 AM 77.0 °F - 73.0 °F 88% 29.96 in 10.0 mi SSW 5.8 mph - N/A   Clear
1:53 AM 75.9 °F - 73.0 °F 91% 29.96 in 10.0 mi South 3.5 mph - N/A   Clear
2:53 AM 75.9 °F - 73.0 °F 91% 29.95 in 10.0 mi Calm Calm - N/A   Clear
3:53 AM 75.9 °F - 73.0 °F 91% 29.95 in 10.0 mi SSW 3.5 mph - N/A   Clear
4:53 AM 75.9 °F - 72.0 °F 87% 29.96 in 10.0 mi SW 3.5 mph - 0.00 in   Clear
5:53 AM 75.0 °F - 72.0 °F 90% 29.96 in 10.0 mi SSW 3.5 mph - N/A   Clear
6:53 AM 73.9 °F - 71.1 °F 91% 29.96 in 10.0 mi SSW 3.5 mph - N/A   Clear
7:53 AM 75.9 °F - 72.0 °F 87% 29.97 in 10.0 mi SW 4.6 mph - N/A   Clear
8:53 AM 80.1 °F 84.5 °F 73.9 °F 81% 29.99 in 10.0 mi SW 5.8 mph - N/A   Clear
9:53 AM 84.0 °F 91.2 °F 73.9 °F 72% 30.00 in 10.0 mi SW 8.1 mph - N/A   Clear
10:53 AM 86.0 °F 92.2 °F 72.0 °F 63% 30.01 in 10.0 mi West 9.2 mph - N/A   Clear
11:53 AM 89.1 °F 96.0 °F 72.0 °F 57% 30.00 in 10.0 mi WSW 10.4 mph 16.1 mph N/A   Clear
12:53 PM 90.0 °F 96.9 °F 72.0 °F 55% 29.98 in 10.0 mi West 6.9 mph - N/A   Scattered Clouds
1:53 PM 91.0 °F 97.6 °F 71.1 °F 52% 29.96 in 10.0 mi SW 10.4 mph 18.4 mph N/A   Mostly Cloudy
2:53 PM 88.0 °F 96.5 °F 73.9 °F 63% 29.94 in 10.0 mi Calm Calm - N/A   Mostly Cloudy
3:53 PM 86.0 °F 93.0 °F 73.0 °F 65% 29.91 in 10.0 mi NW 10.4 mph 17.3 mph 0.02 in Rain Light Rain
4:53 PM 84.9 °F 92.1 °F 73.9 °F 69% 29.90 in 10.0 mi SE 6.9 mph - 0.02 in   Partly Cloudy
5:53 PM 86.0 °F 96.9 °F 77.0 °F 74% 29.91 in 10.0 mi ESE 4.6 mph - N/A Thunderstorm Thunderstorm
6:22 PM 78.8 °F - 71.6 °F 78% 29.91 in 2.0 mi NNW 21.9 mph 28.8 mph 0.09 in Rain , Thunderstorm Thunderstorms and Rain
6:33 PM 78.8 °F - 71.6 °F 78% 29.92 in 5.0 mi Variable 4.6 mph - 0.12 in Rain , Thunderstorm Light Thunderstorms and Rain
6:53 PM 78.1 °F - 73.0 °F 84% 29.93 in 10.0 mi South 10.4 mph - 0.12 in Thunderstorm Thunderstorm
7:53 PM 78.1 °F - 72.0 °F 81% 29.95 in 8.0 mi South 5.8 mph - 0.01 in Rain , Thunderstorm Thunderstorms and Rain
8:33 PM 78.8 °F - 71.6 °F 78% 29.95 in 1.8 mi SW 6.9 mph - 0.11 in Rain , Thunderstorm Heavy Thunderstorms and Rain
8:40 PM 78.8 °F - 73.4 °F 83% 29.94 in 3.0 mi South 6.9 mph - 0.13 in Rain , Thunderstorm Thunderstorms and Rain
8:53 PM 77.0 °F - 73.0 °F 88% 29.94 in 10.0 mi ENE 3.5 mph - 0.14 in   Overcast
9:53 PM 77.0 °F - 73.0 °F 88% 29.94 in 10.0 mi SW 4.6 mph - N/A   Clear
10:53 PM 77.0 °F - 73.0 °F 88% 29.96 in 10.0 mi Calm Calm - N/A   Clear
11:53 PM 77.0 °F - 73.9 °F 90% 29.94 in 10.0 mi Calm Calm - N/A   Clear